Teterboro, NJ

4:17 PM EDT on August 29, 2016 (GMT -0400)
Teterboro

Weather History for KTEB - August, 2013

Change the Weather History Date:

Saturday, August 17, 2013

  Actual Average Record
Temperature  
Mean Temperature 71 °F -  
Max Temperature 84 °F 82 °F 93 °F (2002)
Min Temperature 60 °F 63 °F 57 °F (2004)
Cooling Degree Days 6    
Growing Degree Days 21 (Base 50)    
Moisture  
Dew Point 55 °F    
Average Humidity 57    
Maximum Humidity 81    
Minimum Humidity 35    
Precipitation  
Precipitation 0.00 in - - ()
Sea Level Pressure  
Sea Level Pressure 30.24 in    
Wind  
Wind Speed 2 mph (SSE)    
Max Wind Speed 7 mph    
Max Gust Speed -    
Visibility 10 miles    
Events      
Averages and records for this station are not official NWS values.
T = Trace of Precipitation, MM = Missing Value Source: NWS Daily Summary

Daily Weather History Graph

Daily Weather History Graph

Search for Another Location

Airport or City:

Trip Planner

Search our weather history database for the weather conditions in past years. The results will help you decide how hot, cold, wet, or windy it might be!

Date:

Astronomy

Aug. 17, 2013 Rise Set
Actual Time 6:08 AM EDT 7:51 PM EDT
Civil Twilight 5:39 AM EDT 8:20 PM EDT
Nautical Twilight 5:03 AM EDT 8:55 PM EDT
Astronomical Twilight 4:25 AM EDT 9:33 PM EDT
Moon 5:05 PM EDT (8/17) 2:08 AM EDT (8/17)
Length of Visible Light 14h 41m
Length of Day
13h 42m
Waxing Gibbous, 84% of the Moon is Illuminated
Aug 17
Waxing Gibbous
Aug 20
Full
Aug 28
Last Quarter
Sep 5
New
Sep 12
First Quarter

Hourly Weather History & Observations

Time (EDT) Temp. Heat Index Dew Point Humidity Pressure Visibility Wind Dir Wind Speed Gust Speed Precip Events Conditions
12:51 AM 66.0 °F - 55.0 °F 68% 30.21 in 10.0 mi Calm Calm - N/A   Clear
1:51 AM 64.0 °F - 55.0 °F 73% 30.22 in 10.0 mi Calm Calm - N/A   Clear
2:51 AM 62.1 °F - 54.0 °F 75% 30.22 in 10.0 mi Calm Calm - N/A   Clear
3:51 AM 61.0 °F - 54.0 °F 78% 30.22 in 10.0 mi Calm Calm - N/A   Clear
4:51 AM 60.1 °F - 54.0 °F 80% 30.22 in 10.0 mi Calm Calm - N/A   Clear
5:51 AM 61.0 °F - 55.0 °F 81% 30.23 in 10.0 mi Calm Calm - N/A   Clear
6:51 AM 62.1 °F - 55.9 °F 80% 30.24 in 10.0 mi North 3.5 mph - N/A   Clear
7:51 AM 66.0 °F - 55.9 °F 70% 30.25 in 10.0 mi NNW 4.6 mph - N/A   Clear
8:51 AM 69.1 °F - 55.9 °F 63% 30.27 in 10.0 mi Calm Calm - N/A   Clear
9:51 AM 73.0 °F - 57.0 °F 57% 30.27 in 10.0 mi Variable 3.5 mph - N/A   Clear
10:51 AM 77.0 °F - 57.0 °F 50% 30.27 in 10.0 mi NE 4.6 mph - N/A   Clear
11:51 AM 80.1 °F 80.1 °F 55.0 °F 42% 30.26 in 10.0 mi ENE 3.5 mph - N/A   Clear
12:51 PM 81.0 °F 80.4 °F 53.1 °F 38% 30.25 in 10.0 mi Calm Calm - N/A   Partly Cloudy
1:51 PM 82.9 °F 82.0 °F 55.0 °F 38% 30.24 in 10.0 mi NE 5.8 mph - N/A   Mostly Cloudy
2:51 PM 82.0 °F 81.3 °F 54.0 °F 38% 30.23 in 10.0 mi Variable 4.6 mph - N/A   Scattered Clouds
3:51 PM 82.0 °F - 52.0 °F 35% 30.22 in 10.0 mi Calm Calm - N/A   Scattered Clouds
4:51 PM 80.1 °F 80.0 °F 54.0 °F 40% 30.22 in 10.0 mi South 6.9 mph - N/A   Overcast
5:51 PM 78.1 °F - 53.1 °F 42% 30.22 in 10.0 mi South 5.8 mph - N/A   Overcast
6:51 PM 77.0 °F - 53.1 °F 43% 30.23 in 10.0 mi South 5.8 mph - N/A   Scattered Clouds
7:51 PM 73.0 °F - 53.1 °F 49% 30.24 in 10.0 mi SSW 5.8 mph - N/A   Partly Cloudy
8:51 PM 72.0 °F - 51.1 °F 48% 30.25 in 10.0 mi South 5.8 mph - N/A   Clear
9:51 PM 72.0 °F - 54.0 °F 53% 30.26 in 10.0 mi South 4.6 mph - N/A   Clear
10:51 PM 71.1 °F - 55.9 °F 59% 30.26 in 10.0 mi Calm Calm - N/A   Clear
11:51 PM 70.0 °F - 57.0 °F 63% 30.26 in 10.0 mi Calm Calm - N/A   Clear